Вернуться в каталог

FENGYUN 1C DEB

АктивенPO
NORAD 31511·DEBRIS·🇨🇳 China

Запущен May 10, 1999 с Taiyuan Satellite Launch Center

Loading…

Ближайшие Пролёты (ближайшие 24 часа)

TLE

СвежийSource: Space-Track

Эпоха: Sep 13, 2026, 07:20 UTC

1 31511U 99025BXA 26256.30588332  .00000977  00000-0  38009-3 0  9995
2 31511  99.0809  81.0011 0106968 151.8525 208.8495 14.29092003997210

Отслеживайте FENGYUN 1C DEB в реальном времени с AllMySat

Download on the App Store